Regional Weather Roundup
Issued by NWS Pendleton, OR

Home | Current Version | Previous Version | Text Only | Print | Product List | Glossary On
Versions: 1 2 3 4 5 6 7 8 9 10 11 12 13 14 15 16 17 18 19 20 21 22 23 24 25 26 27 28 29 30 31 32 33 34 35 36 37 38 39 40 41 42 43 44 45 46 47 48 49 50
000
ASUS46 KPDT 292010
RWRPDT
PENDLETON REGIONAL WEATHER ROUNDUP
NATIONAL WEATHER SERVICE PENDLETON OREGON
100 PM PDT WED JUL 29 2015

NOTE: FAIR INDICATES FEW OR NO CLOUDS BELOW 12,000 FEET WITH NO
SIGNIFICANT WEATHER AND/OR OBSTRUCTIONS TO VISIBILITY.

# INDICATES UNOFFICIAL STATION AND DATA

WAZ520-292110-
EAST SLOPES OF WASHINGTON CASCADES

CITY            SKY/WX      TMP DP  RH  WIND    PRES   REMARKS
#BULLFROG 2SW   N/A         85  35  17  N8      27.76F
#BUMPING DAM    N/A         79  N/A N/A S1      N/A
#CLE ELUM HS    N/A         85  34  16  NE2     30.10F
#CLE ELUM LAKE  N/A         84  28  13  CALM    30.06F
#CLIFFDEL 2NW   N/A         86  25  11  W1      N/A
#EASTON DOT     N/A         83  35  18  N2      N/A
#GLENWOOD       N/A         84  55  37  CALM    30.10F
#MANASTASH CYN  N/A         81  44  27  N2      30.15F
#NELSON         N/A         87  34  15  W1      30.07F
#NELSON 3SW     N/A         83  36  19  CALM    30.27F
#NILE           N/A         86  33  15  NE2     29.36F
#PEOH POINT     N/A         80  30  16  NE2     N/A
#RONALD 2NW     N/A         82  34  18  W5      30.06S
#SNOWDEN        N/A         83  18   9  E2      N/A
#SOUTH BLEWITT  N/A         N/A N/A N/A CALM    N/A
#TEANAWAY 4NE   N/A         86  45  24  S1      N/A
#TROUT LAKE 1NE N/A         83  46  27  CALM    30.09F
$$

WAZ521-292110-
SIMCOE HIGHLANDS

CITY            SKY/WX      TMP DP  RH  WIND    PRES   REMARKS
#BICKLETON HS   N/A         80  31  17  S3      N/A
#SATUS PASS DOT N/A         83  38  20  CALM    N/A
#CENTERVILLE 4W N/A         86  45  24  CALM    29.91F
#CENTERVILLE 1SWN/A         83  45  26  E3      30.05F
#GOLDENDALE     N/A         84  37  19  S2      N/A
#GOLDENDALE 1NE N/A         85  29  13  W3      N/A
#GOLDENDALE 5WNWN/A         85  43  23  SE3     30.06F
#GOODNOE HILLS  N/A         92  39  16  W2      N/A    HX 88
#LYLE 6NE       N/A         86  45  24  SW6     30.05F
$$

WAZ026-292110-
KITTITAS VALLEY

CITY            SKY/WX      TMP DP  RH  WIND    PRES   REMARKS
ELLENSBURG AP   SUNNY       88  33  14  E5      30.16F
YTC-OPS AREA    N/A         80  39  23  E12     30.20F
#ELLENSBURG CWU N/A         83  39  21  E6      30.03F
#ELLENSBURG 3NE N/A         82  39  22  S2      30.14F
#ELLENSBURG 1E  N/A         87  49  27  CALM    N/A
#KITTITAS 3S    N/A         80  48  33  CALM    30.07F
#THORP 6N       N/A         82  38  21  S2      30.10F
$$

WAZ027-292110-
YAKIMA VALLEY

CITY            SKY/WX      TMP DP  RH  WIND    PRES   REMARKS
SUNNYSIDE AP    SUNNY       84  41  22  E3      30.13F
YAKIMA AIRPORT  SUNNY       89  38  17  CALM    30.13F
#DONALD 2NE     N/A         92  17   6  NE1     28.97F HX 88
#GRANDVIEW      N/A         84  45  26  CALM    30.11F
#MABTON         N/A         85  51  31  VRB2    30.11F
#MOXEE 2E       N/A         88  13   6  W1      29.98F
#NACHES 2SW     N/A         85  47  27  SE2     30.18F
#TERRACE HTS    N/A         86  45  24  S1      30.06F
#TOPPENISH      N/A         84  48  29  S3      30.01F
#WAPATO 4NE     N/A         92  17   6  NE1     28.97F HX 88
#WEST VALLEY    N/A         84  44  25  CALM    30.07F
#WHITE SWAN 5E  N/A         83  50  32  NE7     30.09F
#WILEY CITY 3W  N/A         90  26  10  CALM    30.11F HX 86
$$

WAZ028-292110-
LOWER COLUMBIA BASIN...WASHINGTON

CITY            SKY/WX      TMP DP  RH  WIND    PRES   REMARKS
PASCO           SUNNY       88  42  20  VRB6    30.12F
RICHLAND AWOS   SUNNY       90  43  20  N3      30.12F HX 86
#BASIN CITY 5SW N/A         85  58  40  E2      30.13F
#BENTON CITY    N/A         85  43  23  NE6     30.00F
#CONNELL 5N     N/A         87  41  20  W2      30.10F
#CONNELL 5NW    N/A         83  48  30  CALM    30.08F
#ELTOPIA 6NW    N/A         83  51  33  CALM    29.11F
#KAHLOTUS       N/A         86  38  18  W5      30.10F
#KENNEWICK      N/A         85  35  17  N8      27.76F
#KENNEWICK 3S   N/A         87  52  30  CALM    30.09F
#PATERSON       N/A         85  41  21  E1      30.09F
#PROSSER DOT    N/A         87  38  18  NW6     N/A
#PROSSER        N/A         86  40  20  N1      30.09F
#SAGEMOOR 2W    N/A         88  54  31  CALM    29.96F
#TOUCHET 2S     N/A         89  52  28  NW2     30.07F
#WEST PASCO     N/A         88  51  28  NE1     30.10F
$$

WAZ029-292110-
FOOTHILLS OF THE BLUES...WASHINGTON

CITY            SKY/WX      TMP DP  RH  WIND    PRES   REMARKS
WALLA WALLA AP  SUNNY       89  36  15  W8      30.14F
#DAYTON SCHOOL  N/A         87  37  17  SE3     30.14F
#LOWDEN 2SE     N/A         88  42  20  NE1     30.07F
#PLEASANT VIEW 1N/A         87  35  16  CALM    30.12F
#PRESCOTT       N/A         89  43  20  W1      30.09F
#SUDBURY        N/A         90  N/A N/A CALM    N/A
#WHITMAN COLLEGEN/A         85  42  22  CALM    30.13F
#WAITSBURG 8N   N/A         93  31  11  S3      29.97F HX 88
#WALLA WALLA U  N/A         87  41  20  NW2     30.08F
#WHITMAN MISSIONN/A         87  48  26  CALM    30.09F
$$

WAZ030-292110-
BLUE MOUNTAINS...WASHINGTON

CITY            SKY/WX      TMP DP  RH  WIND    PRES   REMARKS
$$

ORZ009-041-WAZ024-292110-
COLUMBIA RIVER GORGE

CITY            SKY/WX      TMP DP  RH  WIND    PRES   REMARKS
HOOD RIVER AP   SUNNY       90  46  22  N5      30.10F HX 87
THE DALLES AP   SUNNY       93  40  16  VRB6    30.07F HX 89
#ARLINGTON AIRPON/A         87  41  20  N5      29.80S
#MARYHILL       N/A         87  38  18  N1      N/A
#MOSIER 1S      N/A         90  31  12  N6      30.11F HX 86
#MURDOCK        N/A         91  47  22  SW2     30.07F HX 88

$$

ORZ510-292110-
NORTH CENTRAL OREGON

CITY            SKY/WX      TMP DP  RH  WIND    PRES   REMARKS
#CHENOWITH 1W   N/A         86  39  19  SE6     N/A
#DUFUR 9E       N/A         82  39  22  SW2     30.11F
#GRASS VALLEY 1SN/A         87  42  21  NE5     30.09F
#MAUPIN SCHOOL  N/A         89  49  25  N2      30.11F
#MORO SCHOOL    N/A         85  47  27  N1      30.16F
#SHANIKO 4NW    N/A         81  30  16  N7      30.25F
#TYGH VALLEY 2NEN/A         87  42  21  N3      30.07F
#WAPANITIA AIRPON/A         86  38  18  SE3     30.09F
#WASCO 5NE      N/A         87  46  24  CALM    30.09F
$$

ORZ511-292110-
CENTRAL OREGON

CITY            SKY/WX      TMP DP  RH  WIND    PRES   REMARKS
BEND AIRPORT    SUNNY       82  32  16  W5      30.21F
MADRAS AIRPORT  SUNNY       84  36  18  NE5     30.20F
PRINEVILLE AP   SUNNY       84  32  15  N8      30.20F
REDMOND AIRPORT SUNNY       84  33  16  VRB3    30.20F
#BEND 1SW       N/A         82  37  20  S1      N/A
#BEND-AWBREY    N/A         81  36  20  N1      30.06F
#BEND-KIM LN    N/A         84  41  22  N1      30.20F
#CROOKED RVR RANN/A         84  41  22  E2      30.05F
#CULVER         N/A         82  41  23  NE2     30.15F
#LAKE BILLY CHINN/A         82  -1   4  N8      30.18F
#POWELL BUTTE 3EN/A         81  37  21  N3      N/A
#POWELL BUTTE   N/A         86  44  23  N6      29.83F
#PRINEVILLE 3N  N/A         83  37  19  CALM    30.04F
#WARM SPRINGS   N/A         89  43  20  CALM    30.11F

$$


ORZ509-292110-
EAST SLOPES OF OREGON CASCADES

CITY            SKY/WX      TMP DP  RH  WIND    PRES   REMARKS
#CAMP SHERMAN   N/A         88  35  15  CALM    30.09S
#LA PINE 4NW    N/A         80  44  28  CALM    30.10F
#SISTERS AIRPOR N/A         80  47  31  N6      30.17S
#SISTERS 3N     N/A         81  42  25  E3      30.34S
#SUNRIVER       N/A         81  39  22  E2      29.96F
#TUMALO 3W      N/A         81  39  22  E2      29.94F
#WANOGA BUTTE D N/A         69  31  24  E5      N/A

$$

ORZ044-292110-
LOWER COLUMBIA BASIN...OREGON

CITY            SKY/WX      TMP DP  RH  WIND    PRES   REMARKS
HERMISTON       SUNNY       88  41  19  NW3     30.11F
#BOARDMAN SCHOOLN/A         83  42  24  N2      30.11F
#BOARDMAN 8SW   N/A         85  49  29  N2      30.08F
#ECHO 8SW       N/A         87  46  24  CALM    30.13F
#IONE SCHOOL    N/A         86  39  19  N3      30.09F
#IRRIGON 4NW    N/A         87  38  18  N3      N/A
#UMATILLA       N/A         89  43  20  CALM    30.03F
$$

ORZ507-292110-
NORTHERN FOOTHILLS OF THE BLUES

CITY            SKY/WX      TMP DP  RH  WIND    PRES   REMARKS
PENDLETON AIRPT SUNNY       87  34  15  VRB3    30.14F
#ADAMS 3WNW     N/A         87  38  18  CALM    30.08F
#ATHENA         N/A         85  39  20  NE3     30.12F
#CAYUSE         N/A         86  40  20  NW7     30.07F
#HELIX SCHOOL   N/A         84  41  22  CALM    30.09F
#HELIX 3N       N/A         83  39  21  N12     30.13F
#HOLDMAN 5SE    N/A         86  41  21  CALM    30.14F
#HOLDMAN 6E     N/A         89  41  19  N3      29.91F
#M-F GROVE ELEM N/A         84  37  19  CALM    30.12F
#M-FREEWATER 5SEN/A         84  51  32  CALM    30.13F
#PENDLETON DNTN N/A         92  44  19  CALM    30.08F HX 88
#PDT AQUATIC CTRN/A         85  46  26  N7      30.09F
#PDT SUNRIDGE   N/A         88  36  16  CALM    30.14F
#PENDLETON 7NW  N/A         86  51  30  N1      N/A
#PILOT ROCK     N/A         84  43  24  NW6     30.16F
#TUTUILLA       N/A         87  44  22  E2      30.11F
#UMAPINE 2E     N/A         87  45  23  N1      30.09F
#WESTON SCHOOL  N/A         82  36  19  N2      30.05F

$$

ORZ508-292110-
SOUTHERN FOOTHILLS OF THE BLUES

CITY            SKY/WX      TMP DP  RH  WIND    PRES   REMARKS
#CONDON SCHOOL  N/A         81  36  20  N5      30.15F
#CONDON 5W      N/A         79  29  16  NE3     30.19F
#FOSSIL SCHOOL  N/A         83  34  17  N1      30.13F
#HEPPNER EOC    N/A         84  39  20  SW5     30.01F
#HEPPNER 4NE    N/A         80  40  24  W1      30.09F
#LEXINGTON 2SE  N/A         86  40  20  N7      30.12R
#OLEX 4N        N/A         84  40  21  N3      30.11F
#RUGGS 5NE      N/A         85  11   6  N6      30.40S
#RUGGS 2SW      N/A         82  34  18  N2      30.09F

$$

ORZ502-503-292110-
BLUE MOUNTAINS

CITY            SKY/WX      TMP DP  RH  WIND    PRES   REMARKS
MEACHAM         SUNNY       81  36  20  VRB5    30.25F
#HEPPNER 15SE   N/A         81  40  23  CALM    30.19F
#LONG CREEK HS  N/A         78  37  23  CALM    30.20F
#PIKES PEAK     N/A         75  39  27  N2      27.99S
#TOLLGATE       N/A         71  39  31  W2      30.15S
#TROY SCHOOL    N/A         87  47  25  N1      29.92F
#UKIAH          N/A         81  46  29  W1      30.16F
#WESTON 4E      N/A         80  40  24  S1      30.05F
$$

ORZ505-292110-
JOHN DAY BASIN

CITY            SKY/WX      TMP DP  RH  WIND    PRES   REMARKS
JOHN DAY        SUNNY       85  31  14  NW7     30.24F
#JOHN DAY KJDY  N/A         86  36  17  SW2     30.20F
#DAYVILLE SCHOOLN/A         86  33  15  NE1     30.13F
#MITCHELL       N/A         86  48  27  NW1     30.33F
#MONUMENT HS    N/A         85  39  20  N1      30.15F
#MT. VERNON 5SE N/A         80  37  21  NW2     30.21F
#WINLOCK        N/A         92  36  14  SE12    30.27F HX 88
$$

ORZ506-292110-
OCHOCO AND JOHN DAY HIGHLANDS

CITY            SKY/WX      TMP DP  RH  WIND    PRES   REMARKS
#PAULINA SCHOOL N/A         83  38  20  NE1     30.19F
#PINE MTN OBS   N/A         69  29  22  S7      N/A
#PRAIRIE CITY   N/A         86  43  22  SW1     29.99F
#SENECA         N/A         76  N/A N/A N3      N/A
#SENECA 9NW     N/A         77  35  22  W1      30.13F
$$

ORZ049-292110-
GRANDE RONDE VALLEY

CITY            SKY/WX      TMP DP  RH  WIND    PRES   REMARKS
LA GRANDE       SUNNY       82  39  22  SE5     30.21F
#COVE           N/A         81  47  30  CALM    30.22F
#COVE SCHOOL    N/A         85  43  23  CALM    30.22F
#COVE 6NW       N/A         81  44  27  CALM    30.16F
#ELGIN 3N       N/A         85  38  19  W3      30.17F
#ELGIN 1E       N/A         83  40  22  CALM    N/A
#ISLAND CITY 4N N/A         91  54  29  S1      30.07F HX 89
#LA GRANDE ELEM N/A         80  42  26  CALM    30.21F
#UNION 1S       N/A         81  45  28  N2      30.02F
$$

ORZ050-292110-
WALLOWA COUNTY

CITY            SKY/WX      TMP DP  RH  WIND    PRES   REMARKS
#IMNAHA SCHOOL  N/A         88  41  19  SE2     30.12F
#IMNAHA 10S     N/A         89  40  18  E1      30.17F
#JOSEPH 3N      N/A         77  38  24  N1      30.25F
#JOSEPH 3W      N/A         75  34  22  NE2     30.11F
#LOSTINE        N/A         82  42  24  NW2     29.92F
#MT HOWARD 8000 N/A         60  37  42  NW1     30.50S
#PROMISE 1S     N/A         77  43  30  SW3     30.20F
#WALLOWA SCHOOL N/A         81  40  23  N1      30.16F



$$



USA.gov is the U.S. government's official web portal to all federal, state and local government web resources and services.